Temp
-6 -6 -6 -6 -6 -7 -7 -6 -6 -5 -5 -6 -7 -7 -6 -6 -5 -5 -5 -5 -4 -3 -3 -2 -2 -2 -2 -4 -4 -3 -3 -4 -3 -2 -1 -2 -3 -3 -4 -4 -4 -5 -5 -0
-7 -7 -7 -7 -7 -7 -8 -8 -7 -7 -7 -7 -8 -7 -7 -7 -7 -6 -6 -5 -5 -5 -4 -4 -3 -3 -3 -5 -5 -4 -4 -4 -4 -2 -1 -2 -3 -4 -5 -5 -6 -5 -3 -1
-7 -7 -7 -7 -8 -8 -8 -8 -8 -7 -8 -8 -9 -8 -7 -7 -8 -8 -7 -7 -7 -6 -5 -5 -4 -4 -4 -5 -6 -5 -6 -5 -5 -4 -2 -2 -3 -2 -3 -4 -5 -3 -4 -3
-7 -7 -7 -8 -8 -9 -9 -8 -9 -10 -9 -9 -9 -9 -9 -8 -8 -8 -8 -7 -7 -7 -6 -6 -5 -5 -5 -6 -6 -7 -7 -7 -6 -5 -4 -4 -3 -3 -3 -3 -4 -4 -4 -3
-8 -8 -8 -8 -9 -9 -9 -9 -9 -9 -10 -10 -10 -10 -9 -9 -9 -8 -8 -8 -8 -8 -8 -7 -7 -6 -7 -6 -6 -6 -7 -7 -7 -7 -5 -5 -4 -4 -4 -3 -3 -3 -3 -3
-8 -9 -9 -9 -10 -10 -11 -10 -9 -11 -10 -10 -9 -9 -9 -9 -10 -9 -9 -9 -9 -9 -9 -9 -9 -9 -9 -8 -8 -8 -7 -7 -7 -7 -6 -6 -7 -6 -5 -4 -4 -4 -4 -3
-9 -10 -10 -10 -10 -10 -10 -10 -11 -11 -11 -10 -10 -10 -10 -10 -10 -10 -10 -10 -10 -10 -10 -9 -9 -9 -9 -9 -8 -8 -8 -8 -7 -7 -7 -7 -5 -5 -5 -4 -4 -4 -4 -4
-10 -10 -10 -10 -10 -11 -11 -11 -11 -11 -11 -11 -11 -11 -11 -11 -11 -11 -11 -10 -10 -11 -11 -11 -10 -9 -8 -8 -8 -8 -8 -8 -8 -8 -7 -6 -6 -6 -5 -5 -5 -5 -6 -5
-10 -11 -11 -11 -11 -11 -11 -11 -11 -11 -11 -11 -11 -11 -11 -10 -9 -10 -10 -11 -11 -11 -11 -10 -9 -8 -7 -7 -7 -7 -7 -8 -8 -9 -8 -7 -6 -6 -6 -6 -7 -6 -6 -6
-11 -11 -11 -11 -11 -11 -11 -11 -11 -11 -11 -12 -11 -12 -11 -11 -11 -10 -10 -11 -11 -11 -11 -10 -9 -9 -8 -8 -8 -8 -8 -9 -9 -8 -8 -8 -7 -7 -7 -7 -7 -6 -6 -6
-11 -11 -11 -11 -11 -11 -12 -11 -12 -12 -12 -12 -12 -11 -12 -12 -12 -11 -11 -11 -11 -11 -11 -10 -10 -9 -8 -8 -8 -8 -8 -9 -9 -9 -9 -8 -7 -7 -7 -8 -8 -8 -8 -7
-11 -11 -11 -11 -12 -12 -12 -12 -12 -12 -12 -12 -11 -11 -11 -11 -12 -12 -12 -12 -11 -11 -11 -11 -11 -10 -10 -10 -10 -9 -9 -9 -9 -9 -9 -8 -8 -8 -8 -8 -8 -9 -9 -9
-11 -11 -12 -12 -12 -12 -12 -11 -12 -12 -12 -12 -11 -11 -11 -11 -11 -11 -12 -12 -12 -12 -12 -12 -12 -12 -11 -11 -10 -10 -10 -9 -9 -10 -9 -9 -9 -9 -9 -9 -9 -9 -9 -9
-12 -12 -12 -12 -12 -12 -12 -12 -12 -12 -13 -12 -11 -12 -11 -11 -11 -11 -12 -12 -13 -13 -13 -12 -13 -12 -11 -11 -11 -11 -10 -10 -10 -10 -10 -10 -10 -10 -10 -10 -10 -10 -10 -10
-12 -12 -12 -12 -12 -12 -12 -12 -12 -12 -13 -12 -12 -12 -11 -11 -11 -11 -11 -12 -12 -13 -13 -13 -13 -13 -12 -12 -11 -11 -11 -11 -11 -10 -10 -10 -9 -9 -10 -10 -10 -10 -10 -10
-12 -12 -12 -12 -12 -12 -12 -12 -12 -12 -13 -13 -13 -12 -11 -11 -11 -11 -12 -12 -13 -13 -13 -12 -12 -12 -13 -13 -12 -11 -10 -10 -10 -9 -9 -9 -9 -10 -10 -10 -9 -10 -10 -9
-12 -12 -12 -12 -12 -12 -13 -13 -12 -13 -13 -13 -13 -13 -12 -12 -12 -12 -13 -13 -13 -13 -12 -12 -13 -13 -12 -12 -12 -8 -10 -10 -10 -10 -10 -10 -11 -10 -10 -10 -10 -9 -10 -10
-12 -12 -12 -12 -13 -13 -13 -13 -13 -13 -13 -14 -13 -13 -13 -13 -13 -13 -12 -12 -12 -12 -12 -12 -13 -12 -12 -12 -10 -11 -10 -10 -10 -10 -10 -10 -10 -10 -10 -10 -10 -10 -9 -9
-13 -13 -13 -13 -13 -13 -13 -13 -13 -13 -13 -14 -14 -14 -12 -12 -12 -13 -13 -12 -12 -12 -12 -12 -12 -12 -12 -11 -10 -11 -10 -11 -10 -10 -10 -10 -11 -10 -11 -11 -10 -10 -10 -10
-13 -13 -13 -13 -13 -13 -13 -13 -13 -14 -14 -14 -12 -13 -12 -13 -12 -12 -12 -12 -12 -12 -11 -11 -11 -11 -11 -10 -11 -10 -10 -10 -10 -10 -10 -10 -10 -11 -10 -10 -10 -10 -10 -10
-13 -13 -13 -13 -13 -13 -13 -13 -14 -13 -13 -13 -12 -12 -12 -12 -12 -12 -12 -12 -12 -12 -11 -11 -11 -10 -10 -10 -10 -10 -10 -10 -10 -10 -11 -10 -10 -9 -9 -9 -9 -10 -10 -10
-13 -13 -13 -13 -13 -13 -13 -14 -13 -13 -12 -12 -12 -12 -12 -12 -12 -12 -12 -12 -12 -12 -11 -11 -10 -9 -10 -10 -10 -10 -11 -10 -10 -10 -10 -9 -9 -9 -9 -9 -9 -9 -10 -10
-13 -13 -14 -14 -13 -13 -13 -13 -12 -12 -12 -12 -12 -12 -12 -12 -12 -12 -12 -12 -12 -11 -11 -10 -10 -11 -10 -10 -10 -10 -11 -10 -10 -9 -9 -9 -9 -9 -9 -8 -8 -8 -9 -9
-14 -14 -13 -13 -13 -12 -12 -12 -12 -12 -12 -12 -12 -12 -12 -11 -11 -11 -11 -11 -11 -10 -9 -10 -11 -10 -10 -10 -10 -10 -10 -10 -10 -9 -9 -9 -9 -9 -9 -9 -8 -8 -8 -9
-14 -13 -13 -12 -11 -11 -11 -11 -12 -12 -12 -12 -12 -11 -11 -11 -11 -11 -11 -10 -10 -10 -11 -11 -10 -11 -11 -10 -10 -10 -10 -10 -10 -9 -9 -9 -9 -9 -9 -9 -9 -9 -9 -9
-14 -13 -12 -12 -11 -11 -11 -11 -11 -12 -12 -11 -12 -11 -11 -10 -10 -10 -10 -9 -10 -11 -11 -11 -11 -11 -11 -11 -11 -11 -11 -10 -10 -10 -9 -9 -9 -9 -9 -9 -9 -9 -9 -9
-13 -12 -11 -11 -11 -11 -11 -11 -12 -12 -11 -11 -12 -11 -11 -11 -11 -10 -10 -10 -10 -11 -11 -11 -11 -12 -12 -11 -11 -11 -11 -11 -10 -10 -10 -10 -10 -9 -9 -9 -9 -9 -9 -9
Height
2989 2992 2996 3000 3003 3007 3010 3012 3014 3016 3017 3024 3019 3022 3027 3026 3026 3029 3030 3032 3033 3032 3032 3030 3033 3028 3029 3025 3027 3026 3027 3025 3022 3020 3021 3021 3024 3022 3021 3023 3021 3020 3020 3004
2987 2988 2992 2997 3001 3004 3007 3007 3009 3012 3013 3012 3011 3018 3020 3022 3022 3025 3025 3026 3028 3028 3029 3029 3026 3025 3027 3022 3025 3025 3024 3020 3016 3013 3016 3014 3017 3016 3017 3018 3017 3015 3013 3004
2983 2984 2988 2993 2997 3000 3003 3006 3007 3007 3006 3008 3011 3014 3016 3017 3016 3016 3019 3019 3019 3023 3024 3025 3021 3020 3022 3020 3020 3019 3021 3018 3016 3013 3012 3010 3011 3012 3013 3012 3011 3007 3004 2996
2980 2982 2986 2990 2993 2996 3001 3002 3005 3003 3003 3005 3008 3011 3012 3013 3013 3013 3013 3015 3016 3018 3017 3016 3016 3017 3018 3015 3013 3014 3016 3013 3012 3006 3007 3006 3003 3002 3004 3004 3003 3001 2993 2996
2978 2981 2983 2987 2991 2994 2998 3000 3001 3000 3005 3004 3005 3009 3010 3010 3009 3010 3010 3012 3012 3011 3010 3011 3013 3012 3010 3010 3010 3009 3009 3003 3003 2999 3000 2999 2997 2997 2996 2996 2995 2991 2989 2986
2976 2980 2983 2986 2988 2991 2994 2996 2997 2997 3000 3002 3006 3007 3008 3008 3008 3008 3008 3007 3009 3007 3007 3007 3007 3006 3006 3006 3006 3005 3004 3000 2998 2994 2995 2994 2992 2989 2990 2988 2987 2987 2983 2981
2975 2979 2983 2986 2988 2989 2989 2994 2996 2997 2999 3001 3003 3004 3006 3007 3007 3006 3007 3005 3005 3006 3003 3003 3002 3002 3001 3001 3001 3001 2999 2997 2995 2990 2991 2985 2983 2985 2982 2980 2979 2978 2976 2974
2974 2978 2981 2984 2985 2987 2989 2992 2995 2996 2996 3000 3002 3002 3003 3004 3003 3002 3001 3002 3002 3002 3001 3001 3000 2998 2997 2994 2994 2993 2993 2991 2988 2987 2983 2978 2978 2977 2977 2974 2970 2971 2968 2967
2974 2977 2977 2981 2983 2985 2990 2992 2992 2993 2996 3000 3000 3000 3001 3001 3001 3000 2998 2997 2996 2997 2998 2998 2995 2992 2990 2988 2987 2986 2985 2984 2984 2981 2975 2970 2969 2970 2971 2968 2963 2962 2964 2962
2972 2974 2975 2979 2983 2986 2988 2989 2991 2993 2995 2996 2996 2998 2997 2997 2997 2997 2996 2995 2995 2994 2994 2992 2990 2986 2985 2982 2981 2981 2979 2978 2976 2972 2968 2965 2961 2965 2965 2962 2958 2957 2956 2955
2971 2972 2976 2980 2983 2984 2986 2989 2990 2992 2992 2993 2992 2991 2991 2993 2992 2993 2992 2993 2991 2991 2989 2988 2985 2981 2979 2976 2974 2972 2973 2971 2968 2968 2963 2956 2958 2957 2958 2954 2950 2947 2947 2945
2970 2973 2977 2979 2981 2983 2985 2986 2987 2987 2988 2989 2986 2986 2985 2985 2987 2987 2988 2988 2988 2988 2985 2983 2980 2978 2975 2972 2967 2968 2965 2965 2962 2961 2952 2950 2951 2947 2946 2945 2942 2939 2938 2936
2970 2973 2975 2978 2980 2981 2983 2983 2983 2983 2983 2983 2981 2981 2980 2980 2982 2981 2980 2980 2982 2981 2981 2977 2974 2972 2972 2966 2961 2960 2957 2957 2952 2949 2944 2943 2941 2940 2937 2935 2932 2928 2927 2924
2970 2972 2974 2976 2977 2978 2980 2980 2980 2980 2980 2978 2978 2976 2976 2976 2975 2974 2973 2973 2974 2973 2973 2970 2968 2967 2965 2959 2956 2952 2950 2949 2944 2939 2936 2934 2931 2930 2928 2925 2922 2918 2915 2913
2969 2970 2971 2973 2974 2975 2977 2977 2977 2977 2979 2975 2973 2972 2971 2969 2968 2968 2967 2967 2967 2967 2966 2963 2960 2960 2958 2952 2949 2937 2942 2939 2936 2928 2929 2926 2922 2921 2919 2915 2912 2910 2907 2905
2967 2968 2969 2970 2971 2973 2974 2974 2974 2973 2973 2972 2969 2969 2966 2964 2963 2963 2964 2963 2962 2961 2958 2955 2950 2951 2951 2943 2935 2929 2933 2931 2929 2923 2921 2917 2911 2910 2909 2905 2903 2901 2899 2898
2964 2965 2967 2968 2969 2970 2972 2973 2972 2970 2970 2969 2966 2964 2963 2961 2961 2961 2960 2959 2958 2955 2952 2946 2945 2945 2946 2935 2926 2920 2926 2923 2918 2913 2909 2902 2899 2894 2893 2891 2892 2892 2890 2890
2962 2964 2965 2966 2967 2969 2970 2969 2969 2969 2968 2967 2964 2962 2961 2958 2958 2957 2955 2953 2950 2945 2943 2940 2938 2938 2936 2923 2915 2916 2915 2912 2905 2901 2897 2891 2886 2883 2881 2878 2877 2877 2879 2881
2961 2962 2963 2965 2966 2967 2967 2967 2966 2966 2968 2963 2960 2959 2958 2954 2953 2953 2951 2948 2944 2940 2934 2933 2932 2927 2922 2916 2916 2911 2906 2902 2895 2891 2886 2880 2876 2871 2868 2865 2864 2864 2866 2868
2960 2962 2964 2964 2965 2965 2966 2964 2963 2961 2960 2958 2955 2955 2953 2953 2950 2948 2947 2942 2939 2934 2931 2928 2923 2917 2915 2912 2909 2904 2899 2894 2889 2882 2876 2870 2862 2857 2853 2850 2850 2851 2855 2857
2959 2961 2963 2963 2963 2963 2962 2961 2961 2961 2958 2954 2952 2950 2949 2948 2946 2944 2940 2936 2933 2928 2926 2923 2918 2913 2912 2909 2905 2900 2893 2888 2882 2875 2868 2860 2853 2847 2843 2839 2838 2839 2843 2848
2960 2961 2961 2962 2962 2961 2961 2960 2961 2959 2957 2953 2950 2947 2945 2941 2939 2937 2934 2932 2929 2924 2921 2919 2914 2911 2909 2904 2899 2893 2887 2880 2874 2869 2861 2853 2848 2843 2838 2833 2832 2832 2835 2840
2959 2960 2960 2960 2960 2959 2958 2959 2957 2955 2953 2950 2946 2943 2939 2935 2934 2933 2931 2928 2924 2921 2918 2914 2911 2909 2905 2899 2893 2888 2882 2876 2870 2863 2858 2851 2846 2842 2836 2832 2830 2830 2832 2835
2958 2958 2958 2957 2956 2955 2956 2956 2955 2954 2950 2946 2943 2939 2936 2933 2931 2929 2927 2924 2921 2917 2912 2912 2910 2904 2899 2894 2889 2883 2878 2872 2866 2860 2855 2850 2846 2842 2839 2836 2834 2834 2834 2836
2957 2956 2954 2952 2952 2953 2953 2952 2951 2949 2946 2943 2939 2935 2932 2929 2927 2925 2923 2919 2914 2911 2912 2910 2905 2901 2897 2892 2886 2881 2875 2870 2864 2858 2854 2850 2847 2844 2842 2840 2839 2838 2837 2837
2954 2952 2949 2950 2950 2950 2950 2949 2947 2945 2943 2940 2937 2934 2930 2927 2925 2923 2918 2914 2911 2911 2908 2905 2901 2898 2894 2890 2885 2880 2875 2869 2864 2858 2853 2850 2847 2844 2842 2840 2839 2838 2836 2834
2948 2947 2946 2946 2946 2946 2946 2945 2944 2942 2941 2938 2937 2934 2929 2926 2922 2919 2915 2912 2910 2907 2904 2901 2897 2894 2891 2887 2883 2879 2874 2869 2864 2858 2853 2850 2847 2845 2842 2840 2838 2837 2835 2835
Wind_Speed
12 14 14 14 14 14 15 16 18 18 18 20 21 26 16 20 16 19 20 18 20 22 21 21 22 20 18 10 11 12 12 11 19 22 19 13 15 15 15 7 2 4 8 4
9 9 10 11 12 13 11 12 15 15 16 17 19 15 17 20 14 17 17 18 15 18 23 25 24 23 20 11 11 10 11 9 11 13 14 13 13 12 7 11 11 13 7 10
8 8 9 10 11 12 12 12 10 13 17 19 13 13 17 16 12 17 19 20 17 18 22 21 23 20 16 15 15 20 18 19 22 22 23 23 25 24 22 18 13 22 24 36
9 9 10 10 11 10 10 11 11 10 6 12 14 14 9 11 12 12 9 12 17 20 22 21 24 24 25 24 19 19 20 28 26 32 31 29 31 31 30 33 32 31 39 36
10 10 9 9 9 8 9 9 6 9 6 11 8 10 7 8 13 16 8 14 17 15 14 17 23 18 17 18 17 22 19 28 24 26 23 24 27 31 33 34 37 39 39 40
11 10 9 9 8 7 7 8 8 7 9 4 7 10 9 11 11 10 9 9 9 9 13 12 13 14 17 17 16 17 18 16 13 22 22 24 19 25 29 33 33 33 36 36
13 13 12 11 9 9 7 9 6 6 3 6 7 8 8 8 8 11 10 12 10 11 12 17 20 20 19 20 22 21 23 25 25 26 25 21 30 27 30 34 34 32 32 32
14 13 12 11 9 8 7 8 7 7 6 6 7 8 8 10 11 12 13 13 14 16 17 15 15 18 19 24 25 26 27 28 29 27 30 34 36 38 36 36 38 33 30 30
13 12 10 9 8 8 7 7 6 5 6 3 9 4 7 7 9 11 13 11 11 12 11 15 21 23 23 16 17 17 19 19 29 29 26 23 33 30 26 25 30 30 24 27
11 10 9 9 10 10 8 6 5 6 6 5 9 6 8 7 9 11 10 10 10 10 12 18 22 26 24 27 26 26 25 23 24 28 32 34 35 30 29 31 36 30 28 27
12 12 12 11 9 8 7 8 9 8 9 10 12 14 15 12 13 12 12 9 11 12 16 17 20 21 24 26 28 29 27 27 31 31 34 35 32 31 32 34 30 27 28 29
13 12 11 10 9 9 9 11 12 13 14 12 15 15 14 15 16 18 16 16 14 12 11 12 13 19 23 26 32 25 29 27 29 33 39 37 35 39 37 36 38 40 39 40
12 11 10 11 10 10 10 12 14 15 16 14 15 7 14 9 13 18 25 22 20 22 22 24 24 26 25 29 30 31 33 31 35 34 37 37 34 33 34 33 36 37 36 40
11 11 11 11 12 9 9 12 15 14 14 19 16 13 8 19 22 21 22 20 21 19 20 23 26 26 21 29 32 35 33 30 33 37 37 36 35 29 27 25 28 31 29 34
11 11 12 11 10 11 12 15 13 14 14 17 20 22 19 11 13 15 13 19 21 21 25 29 29 24 26 30 31 42 30 31 34 40 31 31 33 32 31 32 32 32 30 28
11 11 10 10 11 11 10 12 12 14 15 20 19 10 14 15 13 16 12 15 18 22 27 27 29 26 25 33 35 35 27 25 26 34 33 35 39 37 36 34 31 30 29 27
10 9 8 8 8 8 8 8 10 13 11 12 11 8 7 5 6 12 15 17 18 22 25 29 28 26 25 35 40 17 26 31 33 33 32 35 33 35 31 27 27 29 28 26
8 7 7 8 7 7 8 11 12 10 11 12 9 11 11 12 12 13 14 15 18 25 27 30 24 24 25 37 36 30 25 27 33 35 35 39 34 32 33 32 32 30 27 27
7 7 8 6 5 6 10 10 10 10 12 10 11 9 7 7 7 9 15 19 21 22 26 24 17 17 19 22 22 27 27 30 35 34 35 29 34 37 41 34 31 29 28 25
9 8 6 5 7 7 8 10 11 10 7 13 9 5 8 7 11 14 14 14 15 14 17 13 23 30 24 19 23 29 29 30 31 36 33 37 38 37 35 31 28 28 26 25
9 7 5 5 5 6 8 5 4 3 5 8 8 14 14 16 19 19 15 10 9 9 9 9 7 15 9 20 23 26 27 28 28 29 33 35 31 27 26 23 19 22 29 29
9 5 6 5 5 4 3 3 4 6 5 8 14 19 22 24 24 13 7 9 6 7 8 5 5 3 26 26 27 28 30 29 29 31 27 26 23 20 23 20 13 13 19 19
7 7 6 4 5 5 3 3 5 6 9 17 22 25 28 18 9 7 7 5 8 7 5 5 4 23 24 26 28 29 30 28 29 27 21 22 19 19 18 9 4 6 11 17
7 6 6 5 5 5 5 6 10 14 20 22 20 21 16 13 8 7 6 7 6 5 4 7 20 26 29 31 30 28 28 29 30 27 20 22 17 13 10 8 6 5 4 5
8 5 5 8 7 5 7 11 15 16 18 17 21 19 10 10 8 6 6 5 6 2 9 20 26 26 28 29 29 27 28 28 29 28 18 19 12 10 7 5 4 3 3 8
11 10 7 7 7 5 8 13 13 14 15 17 13 12 6 7 5 8 7 5 2 10 20 27 28 25 25 25 25 26 28 28 29 29 18 15 13 12 10 8 8 8 12 7
8 11 11 14 10 9 10 13 11 15 17 17 12 7 6 10 7 8 8 10 20 29 29 30 29 28 27 27 27 27 27 28 28 27 22 16 14 12 12 11 6 9 8 7
Wind_Direction
198 214 221 227 234 241 242 246 246 248 238 219 217 230 235 247 233 244 257 260 257 255 259 261 261 260 258 229 233 263 275 259 272 266 267 260 275 277 262 249 145 291 275 281
206 210 228 239 247 255 257 250 252 241 228 221 220 229 230 243 248 243 250 252 256 262 259 262 259 263 255 250 247 264 257 253 280 277 267 217 250 263 243 293 277 259 250 264
233 239 245 248 251 255 259 260 249 239 226 228 217 228 239 242 256 248 244 252 256 259 256 256 260 259 263 257 252 251 248 261 263 264 270 279 278 269 268 263 251 273 268 282
236 244 245 245 245 244 245 245 228 226 262 234 237 222 234 235 243 259 255 260 252 256 260 260 258 260 260 260 262 253 260 258 263 267 270 268 266 268 269 269 268 264 279 280
237 243 240 229 223 232 244 240 247 214 232 209 216 235 244 244 249 243 247 239 251 246 253 258 261 264 266 260 259 253 251 254 259 269 270 271 270 265 266 266 268 272 276 281
236 234 214 212 215 213 230 246 232 197 222 227 218 236 243 246 242 250 243 248 266 280 271 264 266 269 265 266 271 268 265 268 264 268 275 275 274 262 265 269 268 272 274 279
201 194 204 212 220 229 227 223 199 204 191 193 210 237 227 238 245 246 255 268 263 285 273 271 283 286 276 266 264 262 265 265 272 275 278 267 270 272 270 273 277 279 277 275
190 200 212 219 218 216 212 203 206 200 178 219 245 245 243 255 262 264 265 263 263 263 270 287 286 280 272 265 266 263 257 261 266 267 268 273 274 267 272 277 278 284 278 273
194 194 197 207 203 204 202 210 210 204 207 224 230 238 250 248 266 265 275 273 267 269 267 260 259 265 273 270 270 265 260 257 257 259 258 265 270 276 280 291 291 272 277 280
190 191 188 186 189 192 198 218 225 226 226 251 246 236 239 248 257 257 273 274 276 264 260 259 262 268 268 269 268 267 263 262 256 263 267 271 269 278 284 286 275 284 278 276
188 180 183 189 193 203 221 255 255 256 249 246 263 258 255 258 258 251 262 275 271 256 257 263 272 269 269 273 267 269 272 269 267 271 269 271 281 280 268 277 279 281 285 273
180 186 196 205 222 234 243 256 267 273 265 260 270 259 246 244 237 249 261 257 261 270 271 266 274 275 276 274 275 270 274 270 277 268 271 272 281 283 283 284 283 281 279 276
192 203 221 237 245 254 250 255 265 272 284 285 270 290 259 238 263 254 256 260 264 261 260 269 270 271 277 277 277 281 275 275 274 276 271 276 278 278 278 278 275 274 271 267
212 227 239 251 257 247 236 249 259 269 288 292 288 283 282 274 275 268 269 273 255 260 263 264 269 272 274 276 279 277 276 279 276 274 274 277 278 282 282 280 283 282 279 268
230 241 249 247 248 245 252 259 268 271 271 275 282 281 294 269 266 260 271 257 268 266 264 267 270 274 276 277 277 270 275 273 271 277 286 281 285 285 285 284 281 280 283 275
234 236 238 251 253 254 255 272 273 271 274 274 290 278 286 273 262 258 237 269 266 260 263 272 273 280 268 271 273 280 280 282 278 278 282 278 277 278 280 278 279 274 274 270
221 234 245 245 235 231 233 249 266 288 282 287 296 297 290 227 253 276 274 271 260 263 264 269 272 271 269 271 274 281 284 283 283 283 285 280 276 272 268 270 270 273 274 270
228 234 230 224 223 233 257 270 274 282 286 288 275 276 282 271 269 272 268 264 273 277 278 282 268 275 268 267 278 291 294 289 276 276 277 280 287 292 290 283 268 262 260 263
218 218 212 211 223 248 257 271 277 272 271 275 274 280 293 283 269 261 280 278 277 287 277 280 272 267 245 277 291 287 295 300 297 302 300 296 296 287 286 283 268 259 264 253
209 195 200 243 241 245 270 284 287 282 267 255 264 240 271 307 320 305 297 280 263 267 278 276 248 264 291 290 290 303 309 312 309 302 311 308 304 302 296 285 266 246 246 251
179 189 226 231 241 267 279 270 262 285 272 261 296 318 311 301 306 306 287 263 264 260 266 244 261 281 338 341 332 325 319 320 322 324 320 312 309 311 309 307 280 249 233 238
192 213 238 245 256 255 246 248 265 254 260 266 293 307 313 309 305 293 261 258 254 249 266 254 251 325 345 335 332 335 334 332 331 332 323 329 334 327 320 308 284 266 234 234
187 195 226 236 232 230 221 250 259 248 285 314 316 314 311 299 282 243 253 248 241 266 244 250 355 340 340 339 338 338 337 338 338 339 333 344 345 341 338 335 289 255 222 224
199 226 235 230 225 205 221 260 288 303 306 320 332 329 306 292 257 248 252 245 250 250 252 16 337 344 349 347 346 341 339 343 345 343 340 347 349 359 12 39 67 92 121 170
219 233 234 230 212 217 268 286 299 312 317 322 328 332 307 288 240 244 248 251 235 210 357 339 343 347 344 347 350 348 344 344 348 349 342 346 349 355 349 359 11 8 337 289
228 240 241 219 210 238 275 296 309 317 324 329 336 316 284 280 281 284 267 259 18 324 327 337 338 335 334 340 347 352 354 352 347 350 340 348 358 352 328 304 286 295 306 283
231 247 247 242 245 256 279 287 299 312 318 323 318 297 277 302 286 275 282 273 307 321 320 327 328 322 321 324 327 331 339 346 351 350 346 329 331 338 345 339 295 280 284 196